SCP
2 3 3 3 2 2 2 2 2 2 3 2 2 2 2 2 2 2 2 2 2 2 1 1 1 1 1 1 1 1 1 1 1 1 1 1 1 1 1 1 1 0 0
2 2 3 3 2 2 2 2 2 3 3 3 3 3 3 3 3 3 3 2 2 2 2 2 2 1 1 1 1 1 1 1 1 1 1 1 1 1 1 1 1 1 0
2 2 2 2 3 3 3 3 3 3 4 4 3 4 4 4 4 4 3 3 3 2 2 2 2 2 1 1 1 1 2 2 2 2 2 2 1 1 1 1 1 1 1
2 2 2 2 2 3 3 3 3 4 4 4 4 4 5 5 4 4 3 3 3 3 3 3 3 2 2 2 1 2 2 2 2 2 2 2 2 1 1 1 1 1 1
2 2 2 2 2 2 3 3 3 4 4 4 4 4 5 5 4 3 3 3 3 3 3 3 3 3 2 2 2 2 2 2 2 2 2 2 2 2 1 1 1 1 1
2 2 2 2 2 2 3 3 3 3 4 4 4 4 5 5 4 4 3 3 4 4 3 3 3 3 3 2 2 2 2 3 3 2 2 2 2 2 2 1 1 1 1
1 1 2 2 2 2 2 2 3 3 3 4 5 5 5 4 4 4 4 3 3 3 3 4 3 3 3 2 2 2 2 3 3 3 3 3 3 2 2 2 1 1 1
1 1 1 2 2 2 2 2 3 3 3 4 5 5 5 4 4 3 3 3 3 4 4 4 4 4 3 3 2 2 2 3 3 3 3 3 3 3 2 2 1 1 1
1 1 1 1 1 2 2 2 2 3 3 4 4 5 5 5 4 3 3 3 3 4 4 4 3 3 3 3 2 2 2 2 2 3 3 3 3 2 2 2 2 1 1
1 1 1 1 1 1 1 2 2 2 3 3 4 4 5 5 4 4 4 3 3 3 4 3 3 3 3 2 2 2 2 2 2 2 3 3 2 2 2 2 2 2 2
1 1 1 1 1 1 1 1 2 2 3 3 3 4 5 5 4 4 4 5 4 4 3 3 3 3 3 3 3 2 2 1 1 2 2 2 2 2 2 2 2 2 2
1 1 1 1 1 1 1 1 1 2 2 3 3 4 4 4 4 4 5 5 5 5 4 3 3 3 3 3 3 2 1 1 1 1 1 2 2 2 2 2 2 2 2
1 1 1 1 1 1 1 1 1 2 2 2 3 3 3 3 4 4 5 5 5 4 3 3 3 3 3 3 2 1 1 0 0 0 1 1 1 1 1 1 1 1 1
2 2 2 2 1 1 1 1 1 2 2 2 2 2 2 3 4 4 5 5 4 3 3 3 3 3 3 2 2 1 1 0 0 0 0 0 1 1 1 1 1 1 1
2 2 2 2 2 1 1 1 1 2 2 2 2 2 2 2 4 5 5 4 3 2 2 3 3 3 3 2 1 1 1 0 0 0 0 0 0 0 0 0 0 0 1
3 3 3 3 2 2 1 1 1 1 2 2 2 2 2 2 4 5 4 4 2 2 2 2 3 3 3 2 1 1 1 0 0 0 0 0 0 0 0 0 0 0 0
2 3 3 3 3 2 2 2 1 1 1 1 1 1 1 2 3 4 4 3 2 2 2 2 3 3 2 2 1 1 1 0 0 0 0 0 0 0 0 0 0 0 0
2 2 3 3 3 3 3 2 1 1 1 1 1 1 1 2 3 4 3 3 2 2 2 2 2 2 2 2 1 1 0 0 0 0 0 0 0 0 0 0 0 0 0
2 2 3 3 3 3 3 2 2 1 1 1 1 1 1 2 2 3 3 2 2 2 2 2 1 1 1 1 1 1 0 0 0 0 0 0 0 0 0 0 0 0 0
3 2 2 2 2 2 2 2 2 1 1 1 1 1 1 1 2 2 2 2 2 2 2 1 1 0 0 1 1 0 0 0 0 0 0 0 0 0 0 0 0 0 0
2 2 2 2 2 1 1 1 1 1 1 1 1 1 1 1 1 1 1 1 1 1 1 1 0 0 0 0 0 0 0 0 0 0 0 0 0 0 0 0 0 0 0
2 2 2 2 2 1 1 0 1 1 1 1 1 1 1 1 0 0 1 1 1 1 0 0 0 0 0 0 0 0 0 0 0 0 0 0 0 0 0 0 0 0 0
1 2 2 2 1 1 0 0 0 0 1 1 1 1 1 0 0 0 0 0 0 0 0 0 0 0 0 0 0 0 0 0 0 0 0 0 0 0 0 0 0 0 0
1 1 2 2 1 1 0 0 0 0 1 1 1 1 0 0 0 0 0 0 0 0 0 0 0 0 0 0 0 0 0 0 0 0 0 0 0 0 0 0 0 0 0
1 1 1 1 1 1 0 0 0 0 1 1 0 0 0 0 0 0 0 0 0 0 0 0 0 0 0 0 0 0 0 0 0 0 0 0 0 0 0 0 0 0 0
0 1 1 1 1 1 0 0 0 1 1 1 0 0 0 0 0 0 0 0 0 0 0 0 0 0 0 0 0 0 0 0 0 0 0 0 0 0 0 0 0 0 0
Wind_Speed
8 8 6 6 8 7 7 8 8 9 9 10 10 10 10 10 10 9 6 7 10 11 13 13 13 13 13 14 15 15 16 17 19 20 21 21 21 20 20 19 19 18 18
8 8 8 8 8 8 8 7 9 9 8 8 10 11 11 11 10 10 9 8 10 12 12 13 14 14 14 14 14 14 15 16 17 19 20 21 21 20 20 20 19 19 18
9 9 9 9 8 8 9 8 10 8 9 9 10 11 10 10 10 10 10 8 8 10 13 13 14 14 15 15 15 15 15 15 16 18 19 20 20 20 20 20 19 19 18
10 9 9 10 9 8 8 8 8 8 9 9 9 9 9 9 11 11 10 9 8 8 9 13 14 14 15 16 16 16 15 16 16 18 19 20 21 21 20 20 20 19 19
10 9 9 9 9 8 8 9 8 8 9 9 9 9 10 10 10 11 12 12 11 10 9 9 13 15 16 17 17 17 16 16 16 18 19 20 21 21 20 20 20 19 19
8 8 8 9 9 8 8 8 10 9 9 9 10 10 10 10 10 10 12 11 11 12 12 12 10 11 15 16 15 16 16 15 16 17 19 20 20 20 21 21 20 20 20
7 7 8 8 8 8 9 10 9 11 10 8 8 9 10 12 12 11 11 11 12 12 11 11 10 9 7 13 15 14 15 15 15 16 18 19 19 20 21 21 21 21 20
7 7 7 8 8 8 10 10 10 9 9 7 7 7 8 8 10 11 10 10 12 10 11 12 11 9 8 7 6 11 12 13 14 14 15 17 18 19 20 21 21 21 21
7 7 8 8 8 9 8 9 10 11 10 9 8 8 7 8 6 7 10 10 10 8 9 9 10 9 9 8 7 6 7 8 11 12 12 13 15 16 18 20 21 21 21
7 7 7 8 8 9 9 10 10 9 11 10 8 9 11 9 8 6 6 7 9 9 8 7 7 7 8 7 5 2 3 4 5 6 8 10 11 13 15 18 20 21 21
6 7 7 7 8 9 9 10 11 11 10 10 9 8 10 10 12 9 8 6 6 6 6 6 5 5 5 4 3 2 3 2 2 1 2 4 6 9 12 15 18 21 22
5 6 7 7 8 8 9 10 11 13 11 12 10 9 9 9 9 10 11 9 7 5 5 4 4 4 3 3 3 6 5 4 3 3 3 2 0 3 7 11 14 17 20
6 5 7 7 8 8 10 10 11 12 12 13 12 10 10 11 10 10 10 8 7 4 4 4 3 3 3 2 4 6 7 5 5 5 5 5 5 3 1 3 6 9 13
7 7 8 9 9 10 11 10 10 12 11 11 12 12 10 10 9 9 9 8 7 5 5 5 3 3 3 3 5 3 7 7 7 7 7 7 7 6 6 5 2 2 4
7 8 9 10 10 10 10 11 10 11 11 11 11 11 10 9 8 9 9 8 7 6 5 4 3 2 3 4 4 5 7 10 9 9 9 9 9 9 9 9 9 8 7
9 9 10 10 10 10 10 10 11 10 10 10 8 9 9 7 7 7 8 7 7 6 3 3 3 4 4 5 5 7 9 12 11 10 10 11 11 12 12 12 12 12 12
10 10 10 10 10 11 10 10 11 10 10 10 9 8 8 7 5 5 5 5 5 5 4 4 4 5 5 6 6 6 7 7 9 11 11 12 12 12 13 13 13 13 12
11 11 10 10 10 10 10 10 10 9 9 9 8 6 6 4 4 3 3 4 4 4 7 8 5 5 6 7 7 6 6 7 8 12 12 12 12 12 12 12 12 12 12
11 11 11 11 10 9 9 9 8 8 7 6 6 4 4 3 2 2 3 3 4 5 6 8 7 5 5 6 7 7 8 6 8 11 12 13 13 12 12 11 11 11 10
12 11 11 11 10 9 8 7 7 5 4 3 3 2 0 1 3 4 4 5 6 7 7 8 7 6 5 6 6 7 7 6 6 7 8 9 11 12 12 11 11 11 9
12 11 11 11 10 8 7 6 5 4 3 1 0 1 3 5 5 4 5 7 8 7 7 7 7 6 5 5 5 5 7 7 6 5 6 7 7 7 8 10 11 10 9
12 11 11 11 10 7 3 2 5 4 2 2 3 4 6 7 9 10 10 9 8 8 8 7 6 7 6 6 4 5 6 6 6 4 4 5 5 6 7 8 9 8 8
12 11 10 10 10 6 6 6 5 4 4 4 5 5 5 7 8 10 12 13 13 11 7 6 9 8 8 6 5 6 5 5 6 4 3 5 5 6 7 8 8 7 7
11 10 9 9 9 8 9 8 7 6 5 5 6 7 8 8 9 10 12 12 11 10 7 8 8 8 8 6 5 7 8 8 7 4 1 4 5 5 6 7 8 6 6
11 10 9 8 8 8 10 10 9 7 7 7 7 8 9 10 10 10 12 13 12 10 13 15 13 12 11 7 2 5 6 6 7 6 2 3 4 5 5 5 7 7 6
12 10 9 8 8 8 11 12 11 7 8 8 7 8 8 10 10 8 11 12 12 11 11 11 10 10 9 7 5 3 2 4 6 6 4 2 3 3 5 5 4 3 4
Wind_Direction
259 263 264 261 265 265 254 247 257 260 257 255 255 255 256 257 255 256 259 228 227 240 253 260 257 251 245 240 237 234 230 226 221 217 216 218 220 221 222 222 220 217 216
262 266 264 262 263 264 264 263 261 262 260 257 254 253 254 257 254 254 257 250 232 234 244 255 261 258 253 247 243 239 233 228 222 217 216 217 218 220 221 222 221 219 217
262 263 268 267 266 267 264 259 261 259 256 252 252 252 252 254 255 254 256 262 258 237 232 240 250 254 254 252 248 242 235 228 222 216 214 215 216 218 219 220 220 218 216
268 266 266 266 267 265 262 259 258 255 254 253 252 251 252 249 248 250 251 250 255 261 249 234 237 245 252 255 253 248 239 229 221 216 214 214 215 216 217 218 219 218 215
279 274 273 276 276 270 264 261 256 256 257 255 254 250 250 249 250 251 253 255 253 253 258 251 230 231 243 251 253 250 243 234 224 219 216 215 215 215 216 217 217 217 215
291 289 280 279 279 274 270 265 265 259 258 258 260 259 253 250 249 249 251 251 249 249 249 255 251 233 228 236 242 247 246 239 230 223 220 218 216 214 213 215 215 215 215
304 294 291 294 284 279 279 276 271 266 259 254 256 259 255 247 246 246 245 247 246 245 246 247 249 254 235 218 226 236 242 244 236 228 222 219 217 213 212 213 213 214 214
307 297 302 296 294 292 283 279 273 269 264 249 248 260 263 251 237 238 236 236 240 241 242 240 240 239 252 256 230 219 234 244 243 235 227 220 217 213 212 212 212 212 212
304 304 301 297 299 290 288 287 280 269 267 260 241 243 256 259 262 234 230 233 234 234 238 242 238 235 235 244 253 215 215 234 240 238 232 223 218 215 212 211 211 210 210
297 299 295 295 294 292 292 284 280 277 271 266 253 239 248 269 269 264 238 228 226 228 233 238 236 232 234 238 232 245 203 220 234 241 238 228 219 214 214 213 212 211 209
285 289 294 295 292 288 291 291 288 279 271 266 263 254 249 248 248 255 258 240 223 221 220 221 229 236 238 231 225 150 138 155 161 216 247 237 223 217 214 214 216 215 212
285 287 291 291 289 291 291 286 284 278 272 270 265 257 251 246 240 239 244 242 236 222 211 211 214 214 218 202 134 100 104 108 109 97 82 69 74 226 220 220 221 220 215
294 300 298 293 291 290 286 284 281 280 276 271 265 259 254 250 251 249 248 246 239 220 202 198 198 196 191 161 122 119 100 96 96 93 86 75 62 51 72 214 222 222 217
296 305 292 287 288 287 285 283 280 277 274 273 270 266 260 253 247 245 244 240 231 215 200 186 167 175 162 137 110 142 104 91 89 88 86 81 74 67 63 63 74 181 199
283 284 286 285 286 285 284 285 279 280 279 274 271 266 260 256 248 244 241 235 228 218 197 176 161 147 144 120 130 124 103 90 85 81 80 81 80 75 70 67 66 71 85
276 276 279 282 283 283 282 282 282 281 279 275 272 268 264 258 251 245 237 229 225 223 195 154 137 139 133 124 110 107 101 99 83 82 82 81 79 77 74 72 73 72 75
270 268 272 276 279 281 282 280 280 281 279 277 274 268 264 257 250 243 232 219 211 198 166 133 126 119 120 115 113 114 116 107 93 83 84 83 81 79 77 75 74 73 73
267 263 266 268 273 278 281 281 282 284 282 279 277 274 269 257 238 230 214 199 183 170 154 140 134 127 123 118 115 114 108 102 100 92 89 86 85 83 81 78 75 73 71
270 264 260 262 268 273 275 275 279 283 284 286 286 277 266 244 200 173 163 148 142 141 138 136 132 126 126 125 126 115 106 109 109 115 105 95 90 87 84 80 76 73 70
275 267 260 257 260 264 266 266 269 272 279 291 296 293 316 126 140 136 125 122 122 122 125 127 129 131 131 139 140 136 126 115 106 108 100 105 107 101 93 85 78 72 67
279 273 263 255 252 252 253 255 253 244 238 218 99 79 79 89 87 104 118 123 125 126 127 127 128 132 134 147 143 137 124 120 108 108 123 124 129 118 111 99 81 70 64
288 278 267 256 248 243 181 223 249 219 193 166 133 111 109 109 95 89 93 100 112 126 127 129 129 124 125 126 123 138 143 143 122 101 110 106 105 98 89 81 73 69 61
297 283 273 260 246 220 166 188 222 209 167 154 143 133 125 116 123 115 102 94 83 80 98 118 121 124 124 124 135 126 102 97 90 104 129 113 111 105 102 91 86 72 60
295 288 277 265 248 212 174 178 187 190 158 147 143 136 130 133 129 128 122 111 103 88 86 95 101 100 101 99 103 107 116 121 118 96 86 112 114 115 112 108 107 87 70
288 284 278 267 250 214 178 177 186 177 156 148 146 141 138 132 124 129 126 118 110 100 76 74 77 82 72 58 48 149 155 149 124 100 73 102 115 122 115 111 126 138 118
281 277 273 264 251 224 184 181 193 182 160 152 146 140 134 132 137 139 133 129 126 122 120 114 108 115 107 91 52 62 121 130 127 109 74 68 110 141 127 103 82 96 124